Regional Weather Roundup
Issued by NWS

Home | Current Version | Previous Version | Graphics & Text | Print | Product List | Glossary On
Versions: 1 2 3 4 5 6 7 8 9 10 11 12 13 14 15 16 17 18 19 20 21 22 23 24 25 26 27 28 29 30 31 32 33 34 35 36 37 38 39 40 41 42 43 44 45 46 47 48 49 50
000
ASUS45 KBOU 021910
RWRCO

WEATHER ROUNDUP FOR COLORADO
NATIONAL WEATHER SERVICE DENVER/BOULDER CO
100 PM MDT THU JUL 02 2015

NOTE: "FAIR" INDICATES FEW OR NO CLOUDS BELOW 12000 FEET WITH NO
SIGNIFICANT WEATHER AND/OR OBSTRUCTIONS TO VISIBILITY.

COZ001>005-013-030-031-022000-
...NORTHWEST COLORADO...

CITY           SKY/WX    TMP DP  RH WIND       PRES   REMARKS
CRAIG          SUNNY     86  47  25 S3        30.20F
HAYDEN         MOSUNNY   82  46  28 NW8       30.23F
MEEKER         MOSUNNY   85  52  32 S7        30.21F
MOUNT WERNER   NOT AVBL
STEAMBOAT SPGS SUNNY     81  48  31 W7        30.24F
WALDEN         SUNNY     73  36  25 NW6       30.36S
$$

COZ006>008-011-022000-
...WEST CENTRAL VALLEYS...

CITY           SKY/WX    TMP DP  RH WIND       PRES   REMARKS
GRAND JUNCTION PTSUNNY   90  49  24 NW8       30.08F
MONTROSE       CLOUDY    88  51  28 NW8       30.17F
EAGLE          MOSUNNY   81  52  36 CALM      30.23F
RIFLE          MOSUNNY   89  50  26 NW7       30.12F
DELTA          CLOUDY    90  49  24 S3        30.12F
NUCLA          CLOUDY    82  46  28 N6        30.22F
$$

COZ017>023-064>068-022000-
...SOUTHWEST COLORADO...

CITY           SKY/WX    TMP DP  RH WIND       PRES   REMARKS
DURANGO        MOSUNNY   81  53  37 SW12      30.20F
CORTEZ         SUNNY     87  53  31 SW10G18   30.16F
PAGOSA SPRINGS MOSUNNY   80  43  27 W3        30.29F
TELLURIDE      PTSUNNY   70  51  50 W7        30.45F
WOLF CREEK PAS NOT AVBL
$$

COZ009-010-012-014-032>034-037-058>063-022000-
...CENTRAL COLORADO...

CITY           SKY/WX    TMP DP  RH WIND       PRES   REMARKS
ASPEN          PTSUNNY   82  49  31 NW10G18   30.30F
BUENA VISTA    PTSUNNY   72  48  42 W6        30.33S THUNDER
COPPER MTN     CLOUDY    63  37  39 W6G23     30.66S
BERTHOUD PASS  CLOUDY    48  37  66 MISG      30.73R THUNDER
COTTONWOOD PAS NOT AVBL
GUNNISON       PTSUNNY   75  50  41 W8        30.32F
KREMMLING      MOSUNNY   81  41  24 SW6       30.30F
LEADVILLE      PTSUNNY   68  38  33 N9        30.45F
MONARCH PASS   PTSUNNY   59  45  58 SW15G24   30.74F THUNDER
SALIDA         PTSUNNY   78  52  40 E12G21    30.35F
SUNLIGHT       MOSUNNY   68  46  45 SW3       30.60S
WILKERSON PASS CLOUDY    52  45  76 NE12G18   30.64S
$$

COZ069>075-022000-
...SAN LUIS VALLEY/SANGRE DE CRISTO MOUNTAINS...

CITY           SKY/WX    TMP DP  RH WIND       PRES   REMARKS
ALAMOSA        CLOUDY    72  49  44 CALM      30.31F
LA VETA PASS   CLOUDY    54  52  94 MISG      30.53F FOG
SAGUACHE       PTSUNNY   72  52  49 S6        30.34F
$$

COZ035-036-038>040-022000-
...NORTHERN COLORADO FRONT RANGE...

CITY           SKY/WX    TMP DP  RH WIND       PRES   REMARKS
DENVER INTL AP MOSUNNY   78  53  41 VRB5      30.21F
DMNS CITY PARK   N/A     78  52  40 SE9       30.21S
AURORA         MOSUNNY   76  54  45 NE3       30.24F
FRONT RANGE AP MOSUNNY  N/A N/A N/A CALM      30.23F
ERIE MUNI ARPT MOSUNNY   79  50  36 N3        30.20F
BOULDER MUN AP MOSUNNY   79  52  38 SE6       30.21F
CENTENNIAL     PTSUNNY   75  52  44 CALM      30.25S
BROOMFIELD     PTSUNNY   79  50  36 N7        30.24S
FORT COLLINS   SUNNY     79  57  47 CALM      30.20F
LONGMONT       SUNNY     84  51  32 CALM      30.21F
$$

COZ041-046-047-076>085-087-088-022000-
...PIKES PEAK/PALMER DIVIDE AND SOUTHERN FOOTHILLS...

CITY           SKY/WX    TMP DP  RH WIND       PRES   REMARKS
COLO. SPRINGS  PTSUNNY   75  52  44 CALM      30.28F
A. F. ACADEMY  PTSUNNY   72  53  51 N3        30.29S
ELLICOTT       MOSUNNY  N/A N/A N/A VRB7      30.27F
FALCON         MOSUNNY   74  53  46 CALM      30.33S
FORT CARSON    MOSUNNY   73  59  62 S8        30.25F
LIMON          MOSUNNY   74  57  55 VRB3      30.22F
MONUMENT HILL  MOSUNNY   70  54  56 N6        30.34R
TRINIDAD       PTSUNNY   71  58  63 N10       30.27S
$$

COZ042>045-048>051-090-091-022000-
...NORTHEAST COLORADO...

CITY           SKY/WX    TMP DP  RH WIND       PRES   REMARKS
GREELEY ARPT   SUNNY     77  57  50 NW3       30.19F
AKRON          SUNNY     77  58  51 NW14G22   30.17S
BURLINGTON     MOSUNNY   81  58  45 N14       30.14R
WRAY           MOSUNNY   85  55  36 N13G26    30.10F
STERLING       MOSUNNY   82  57  42 N8          N/A
HOLYOKE        SUNNY     84  55  37 N14G21    30.11S
FORT MORGAN    SUNNY     78  56  46 NW6       30.17F
$$

COZ086-089-092>099-022000-
...SOUTHEAST COLORADO...

CITY           SKY/WX    TMP DP  RH WIND       PRES   REMARKS
PUEBLO         PTSUNNY   80  55  42 VRB5      30.18F
LA JUNTA       PTSUNNY   79  57  46 CALM      30.15F
LAMAR          PTSUNNY   84  59  42 E9        30.06F
SPRINGFIELD      N/A     82  60  47 N12G21    30.13S
$$


USA.gov is the U.S. government's official web portal to all federal, state and local government web resources and services.